| time (UTC) | temp C | wind direction | speed KPH | gust KPH | rain 1hr cm | rain 24hr cm | rain mn cm | humidity % | barometer mb |
| 20260505124713 | 6 | 330 | 17.7 | 30.6 | 0.00 | 0.13 | 0.10 | 56 | 999.1 |
| 20260505122713 | 8 | 280 | 16.1 | 27.4 | 0.00 | 0.13 | 0.10 | 46 | 998.5 |
| 20260505120713 | 7 | 264 | 17.7 | 46.7 | 0.00 | 0.13 | 0.10 | 49 | 998.8 |
| 20260505114713 | 8 | 275 | 16.1 | 30.6 | 0.00 | 0.13 | 0.10 | 43 | 998.1 |
| 20260505112713 | 8 | 293 | 16.1 | 33.8 | 0.00 | 0.13 | 0.10 | 44 | 997.7 |
| 20260505110713 | 8 | 285 | 16.1 | 32.2 | 0.00 | 0.13 | 0.10 | 45 | 997.5 |
| 20260505100713 | 6 | 263 | 14.5 | 32.2 | 0.00 | 0.13 | 0.10 | 65 | 997.0 |
| 20260505094713 | 6 | 227 | 14.5 | 24.1 | 0.00 | 0.13 | 0.10 | 71 | 997.0 |
| 20260505092713 | 6 | 233 | 11.3 | 20.9 | 0.00 | 0.13 | 0.10 | 74 | 997.1 |
| 20260505090713 | 5 | 239 | 14.5 | 24.1 | 0.00 | 0.13 | 0.10 | 79 | 997.1 |
| 20260505084713 | 4 | 242 | 11.3 | 19.3 | 0.08 | 0.13 | 0.10 | 81 | 997.0 |
| 20260505082712 | 3 | 234 | 11.3 | 22.5 | 0.08 | 0.13 | 0.10 | 85 | 997.2 |
| 20260505080712 | 3 | 196 | 9.7 | 19.3 | 0.08 | 0.13 | 0.10 | 88 | 997.0 |
| 20260505074712 | 2 | 235 | 11.3 | 17.7 | 0.03 | 0.05 | 0.03 | 89 | 997.5 |
| 20260505072712 | 2 | 286 | 11.3 | 22.5 | 0.03 | 0.05 | 0.03 | 87 | 997.5 |
| 20260505070712 | 3 | 319 | 14.5 | 29.0 | 0.03 | 0.05 | 0.03 | 82 | 997.3 |
| 20260505064712 | 4 | 303 | 12.9 | 19.3 | 0.00 | 0.03 | 0.00 | 79 | 997.1 |
| 20260505062712 | 5 | 293 | 8.0 | 17.7 | 0.00 | 0.03 | 0.00 | 68 | 996.9 |
| 20260505060712 | 6 | 269 | 9.7 | 20.9 | 0.00 | 0.03 | 0.00 | 67 | 996.8 |
| 20260505054712 | 6 | 254 | 9.7 | 19.3 | 0.00 | 0.03 | 0.00 | 68 | 996.8 |
| 20260505052712 | 6 | 240 | 9.7 | 19.3 | 0.00 | 0.03 | 0.00 | 68 | 996.9 |
| 20260505050712 | 6 | 263 | 8.0 | 16.1 | 0.00 | 0.03 | 0.00 | 70 | 996.6 |
| 20260505040712 | 5 | 252 | 9.7 | 17.7 | 0.00 | 0.03 | 0.00 | 75 | 997.0 |
| 20260505034712 | 5 | 274 | 8.0 | 17.7 | 0.00 | 0.03 | 0.00 | 73 | 997.1 |
| 20260505032712 | 5 | 316 | 8.0 | 14.5 | 0.00 | 0.03 | 0.00 | 74 | 996.6 |
| 20260505030712 | 5 | 296 | 11.3 | 22.5 | 0.00 | 0.03 | 0.00 | 73 | 997.1 |
| 20260505024711 | 5 | 276 | 11.3 | 22.5 | 0.00 | 0.03 | 0.00 | 74 | 997.5 |
| 20260505022711 | 5 | 281 | 11.3 | 19.3 | 0.00 | 0.03 | 0.00 | 75 | 997.0 |
| 20260505020711 | 5 | 280 | 9.7 | 17.7 | 0.00 | 0.03 | 0.00 | 75 | 996.6 |
| 20260505014711 | 6 | 274 | 11.3 | 25.7 | 0.00 | 0.03 | 0.00 | 73 | 996.5 |
| 20260505012711 | 6 | 280 | 12.9 | 25.7 | 0.00 | 0.03 | 0.00 | 71 | 996.4 |
| 20260505010711 | 6 | 249 | 6.4 | 14.5 | 0.00 | 0.03 | 0.00 | 72 | 996.4 |
| 20260505004711 | 6 | 258 | 8.0 | 20.9 | 0.00 | 0.03 | 0.00 | 72 | 996.3 |
| 20260505002711 | 6 | 237 | 8.0 | 12.9 | 0.00 | 0.03 | 0.00 | 71 | 996.3 |
| 20260505000711 | 6 | 258 | 8.0 | 17.7 | 0.00 | 0.03 | 0.00 | 72 | 996.3 |
| 20260504234711 | 6 | 255 | 9.7 | 19.3 | 0.00 | 0.03 | 0.00 | 72 | 996.3 |
| 20260504232711 | 7 | 259 | 12.9 | 22.5 | 0.00 | 0.03 | 0.00 | 71 | 996.3 |
| 20260504230711 | 7 | 256 | 11.3 | 25.7 | 0.00 | 0.03 | 0.00 | 69 | 996.3 |
| 20260504224711 | 7 | 239 | 11.3 | 25.7 | 0.00 | 0.03 | 0.00 | 66 | 996.2 |
| 20260504222710 | 8 | 251 | 11.3 | 20.9 | 0.00 | 0.03 | 0.00 | 63 | 996.1 |
| 20260504220711 | 8 | 248 | 11.3 | 20.9 | 0.00 | 0.03 | 0.00 | 63 | 996.2 |
| 20260504214710 | 8 | 256 | 11.3 | 29.0 | 0.00 | 0.03 | 0.00 | 61 | 996.1 |
| 20260504212710 | 8 | 232 | 14.5 | 22.5 | 0.00 | 0.03 | 0.00 | 60 | 995.9 |
| 20260504210710 | 8 | 234 | 16.1 | 27.4 | 0.00 | 0.03 | 0.00 | 60 | 995.8 |
| 20260504204710 | 8 | 227 | 14.5 | 25.7 | 0.00 | 0.03 | 0.03 | 62 | 996.0 |
| 20260504202710 | 8 | 223 | 12.9 | 24.1 | 0.00 | 0.03 | 0.03 | 63 | 995.9 |
| 20260504200710 | 8 | 216 | 8.0 | 17.7 | 0.00 | 0.03 | 0.03 | 67 | 995.9 |
| 20260504194710 | 8 | 205 | 6.4 | 12.9 | 0.00 | 0.03 | 0.03 | 72 | 996.0 |
| 20260504192710 | 8 | 188 | 6.4 | 9.7 | 0.00 | 0.03 | 0.03 | 77 | 995.9 |
| 20260504190710 | 8 | 192 | 6.4 | 11.3 | 0.00 | 0.03 | 0.03 | 78 | 996.2 |
| 20260504184710 | 8 | 207 | 4.8 | 8.0 | 0.00 | 0.03 | 0.03 | 85 | 996.4 |
| 20260504182710 | 9 | 165 | 6.4 | 9.7 | 0.00 | 0.03 | 0.03 | 83 | 996.4 |
| 20260504180710 | 10 | 154 | 6.4 | 11.3 | 0.00 | 0.03 | 0.03 | 80 | 996.3 |
| 20260504174709 | 10 | 150 | 8.0 | 16.1 | 0.00 | 0.03 | 0.03 | 79 | 996.4 |
| 20260504172709 | 10 | 152 | 6.4 | 11.3 | 0.00 | 0.03 | 0.03 | 80 | 996.5 |
| 20260504170709 | 11 | 154 | 8.0 | 16.1 | 0.00 | 0.03 | 0.03 | 78 | 996.6 |
| 20260504150709 | 11 | 138 | 8.0 | 17.7 | 0.00 | 0.03 | 0.03 | 74 | 997.7 |